FENGYUN 1C DEB, 30253

Orbit data source: Space-Track

FENGYUN 1C DEB, 30253 is space debris in SSO originally from a launch on Mon, 10 May 1999 UTC launched from the Taiyaun Space Center, China (TSC). Fengyun 1C debris stems from the Chinese weather satellite Fengyun-1C, which was intentionally destroyed by a Chinese anti-satellite missile in 2007. This event dramatically increased the amount of space debris, with thousands of trackable fragments posing hazards to satellites and human spaceflight. The Fengyun 1C debris cloud has become a focal point in discussions about space sustainability and the need for international regulations to prevent the creation of new debris.

Loading next visibility...
Identifier
30253, 1999-025XN
Orbit
SSO
Country
Flag of CNCN / PRC
Related business
Manufacturer
Unknown
Mission
Spacecraft
Bus & Motor
Unknown
Mass
Unknown
Launch date (UTC)
1999-05-10 (27 years ago)
Launch vehicle
Unknown
Launch site
Taiyaun Space Center, China (TSC)
Object type
Payload
Rocket body
Debris
Shape & HBR
Unknown shape, 0.1 m
Radar Cross Section
Small (<0.1 m²)

Expand to show TLE details & history
Last TLE update: 8 hours ago

TLE from 8 hours ago
0 FENGYUN 1C DEB
1 30253U 99025XN  26071.21091024  .00002309  00000-0  21039-2 0  9994
2 30253  98.7414 156.7135 0223028 162.1453 255.9855 13.73587902952421
Epoch: 2026-03-12T05:03Z
TLE epoch observation values (Epoch: 2026-03-12T05:03:42.644Z)
Latitude
54.8035°
Longitude
-101.60381°
Altitude
1,038.932 km
Speed
7.316 km/s
True Right ascension
09h 36m 45s
True Declination
54° 38' 51"
Sunlit
Object was in full shadow at epoch
Visualization orbit readout
Latitude
Unknown
Longitude
Unknown
Altitude
Unknown
Speed
Unknown
Apparent Right ascension
Unknown
Apparent Declination
Unknown
Sunlit
N/A
Visualization observer readout
Local Sidereal Time
17:01:34
Azimuth
Unknown
Elevation
Unknown
Doppler factor
Unknown
Orbital elements
Apogee altitude
1,148.133 km
Perigee altitude
819.744 km
Semi-major axis
7,362.075 km
Eccentricity
0.0223
Inclination
98.7414°
RAAN
156.7135°
Arg. of periapsis
162.1453°
True anomaly
253.52325°
Mean anomaly
255.9855°
Eccentric anomaly
254.75263°
Mean motion
3.43592 °/min
Orbital period
104.78 mins
BSTAR
0.0021039
Loading maneuver chart data...
Computing Atmospheric mass density...

Documentation

Showing up to 5 results
|